Sde Dov current weather conditions

sailwx.info

Last reported at 2015-Apr-25 20:19 UTC.
Time now 2015-Apr-28 11:51 UTC

Location: N 32°07' E 034°47'.
View on Google Maps.

See reports from other nearby stations

  
Tides and Currents Weather Stations Pressure Air Temp Water Temp Dewpoint Dewpoint Depression Visibility Wind Speed Wind Dir Waves Ship Positions
date/time (UTC)wind fromknots sea level pressurealtimeterstation pressurevisibilityair tempwater tempwave heightnotes
2015-Apr-28 10:50 210 11 24.0
2015-Apr-28 09:50 220 10 24.0
2015-Apr-28 08:50 220 9 24.0
2015-Apr-28 07:50 210 12 24.0
2015-Apr-28 06:50 210 11 24.0
2015-Apr-28 05:50 210 5 24.0
2015-Apr-28 04:50 200 7 22.0
2015-Apr-28 03:50 110 4 21.0
2015-Apr-28 02:50 21.0
2015-Apr-28 02:30 090 4 21.0
2015-Apr-27 19:50 23.0
2015-Apr-27 18:50 23.0
2015-Apr-27 17:50 010 4 21.0
2015-Apr-27 16:50 350 8 21.0
2015-Apr-27 15:50 340 9 22.0
2015-Apr-27 14:50 340 9 23.0
2015-Apr-27 13:50 340 7 23.0
2015-Apr-27 12:50 340 9 23.0
2015-Apr-27 11:50 330 8 23.0
2015-Apr-27 10:50 300 6 23.0
2015-Apr-27 09:50 280 5 23.0
2015-Apr-27 08:50 250 5 22.0
2015-Apr-27 07:50 240 6 21.0
2015-Apr-27 06:50 240 5 20.0
2015-Apr-27 05:50 21.0
2015-Apr-27 04:50 19.0
2015-Apr-27 03:50 16.0
2015-Apr-27 02:50 16.0
2015-Apr-27 02:00 100 4 16.0
2015-Apr-26 19:50 18.0
2015-Apr-26 18:50 19.0
2015-Apr-26 17:50 19.0
2015-Apr-26 16:50 010 5 19.0
2015-Apr-26 15:50 340 8 20.0
2015-Apr-26 14:50 330 10 21.0
2015-Apr-26 13:50 340 10 21.0
2015-Apr-26 12:50 320 8 21.0
2015-Apr-26 11:50 300 7 21.0